STARLINK-35268

Last updated on Mon Oct 20 2025 00:02:07 GMT+0000 (Coordinated Universal Time)

1 65810U 25218V 25292.25984025 .00101965 00000+0 18504-2 0 9994 2 65810 97.6026 152.8430 0001599 95.4138 264.7294 15.49216505 3644
UTC large
Height (km)
Speed (km/s)
/
Latitude / Longitude
Inclination (degrees)
Orbital Period (minutes)
Azimuth
Elevation
Range (km)
Doppler Factor

Next 0 passes for location: London (51.5072 / 0.1276)

Sorry there are no passes over London.